Miscellaneous Local Product
Issued by NWS Hastings, NE

Home | Current Version | Previous Version | Graphics & Text | Print | Product List | Glossary On
Versions: 1 2 3 4 5 6 7 8 9 10 11 12 13 14 15 16 17 18 19 20 21 22 23 24 25 26 27 28 29 30 31 32 33 34 35 36 37 38 39 40 41 42 43 44 45 46 47 48 49 50
575
AXUS43 KGID 200902
MISGRI

GID CWA HOURLY WEATHER ROUNDUP
NATIONAL WEATHER SERVICE HASTINGS NE
400 AM CDT FRI APR 20 2018

NOTE: "FAIR" INDICATES FEW OR NO CLOUDS BELOW 12,000 FEET WITH NO
SIGNIFICANT WEATHER AND/OR OBSTRUCTIONS TO VISIBILITY.

...SOUTH CENTRAL NEBRASKA...

CITY           SKY/WX    TMP DP  RH WIND       PRES   REMARKS
GRAND ISLAND   PTCLDY    40  27  59 SE8       30.33F WCI  34
KEARNEY        CLOUDY    35  27  72 SE9       30.31F WCI  28
HASTINGS       CLOUDY    39  26  59 SE9       30.32F WCI  33
ORD            MOCLDY    39  27  62 SE7       30.30F WCI  34
YORK             N/A     39  28  65 CALM      30.35F
AURORA         CLOUDY    33  27  76 SE6       30.34S WCI  28
LEXINGTON      CLOUDY    39  28  65 SE7       30.28S WCI  34
HOLDREGE       PTCLDY    38  28  67 SE12      30.28F WCI  31
HEBRON         MOCLDY    35  28  74 CALM      30.36S

...NEBRASKA PANHANDLE...

CITY           SKY/WX    TMP DP  RH WIND       PRES   REMARKS
CHADRON        CLOUDY    45  27  49 SE16G24   30.11F
ALLIANCE       CLOUDY    41  28  60 SE26G33   30.10F
SCOTTSBLUFF    CLOUDY    41  28  60 SE22G31   30.06F
SIDNEY         CLOUDY    39  26  59 SE26G36   30.07F WCI  28

...WESTERN AND NORTH CENTRAL NEBRASKA...

CITY           SKY/WX    TMP DP  RH WIND       PRES   REMARKS
VALENTINE      CLOUDY    37  27  67 E6        30.25F WCI  32
AINSWORTH      CLOUDY    39  29  67 SE10      30.27F WCI  32
ONEILL         CLOUDY    39  32  76 SE10      30.33S WCI  32
BROKEN BOW     MOCLDY    36  27  69 SE6       30.28S WCI  31
IMPERIAL       CLOUDY    39  27  62 E20       30.17F WCI  29
NORTH PLATTE   CLOUDY    38  29  70 SE10      30.24F WCI  31
MCCOOK         CLOUDY    42  28  57 SE14      30.23F

...EASTERN NEBRASKA...

CITY           SKY/WX    TMP DP  RH WIND       PRES   REMARKS
NORFOLK        MOCLDY    33  29  85 SE12      30.35F WCI  24
SO SIOUX CITY  PTCLDY    31  24  75 E9        30.42F WCI  23
TEKAMAH        MOCLDY    27  25  92 N3        30.42F
COLUMBUS       PTCLDY    33  28  81 E8        30.37F WCI  26
ALBION         CLOUDY    36  30  79 SE5       30.34S WCI  32
OMAHA EPPLEY   CLOUDY    38  26  62 SE5       30.43S WCI  34
OFFUTT AFB     CLOUDY    34  25  69 E7        30.41S WCI  28
MILLARD        CLOUDY    40  29  64 CALM      30.42S
LINCOLN        CLOUDY    36  27  69 E3        30.39F
NEBRASKA CITY  CLOUDY    38  28  67 CALM      30.41S
BEATRICE       CLOUDY    40  30  67 SE5       30.38S
FALLS CITY     CLOUDY    39  26  59 CALM      30.41R

...NORTHERN KANSAS...

CITY           SKY/WX    TMP DP  RH WIND       PRES   REMARKS
GOODLAND       CLOUDY    40  27  59 SE18G28   30.14F WCI  31
HILL CITY      CLOUDY    36  27  69 E5        30.28S WCI  32
NORTON         SUNNY     43  27  52 SE9       30.26F
PHILLIPSBURG   CLEAR     39  28  65 E5        30.31S
SMITH CENTER   CLEAR     36  27  69 E9        30.32S WCI  29
BELOIT         CLEAR     36  25  64 CALM      30.34S
HAYS           CLOUDY    39  27  62 SE8       30.30R WCI  33
RUSSELL        CLOUDY    40  29  64 SE13      30.29F WCI  32
CONCORDIA      PTCLDY    33  25  72 E5        30.35S WCI  29
SALINA         CLOUDY    39  30  70 SE7       30.35S WCI  34
TOPEKA         CLOUDY    35  29  78 E3        30.40R



USA.gov is the U.S. government's official web portal to all federal, state and local government web resources and services.